Regional Weather Roundup
Issued by NWS

Home | Current Version | Previous Version | Text Only | Print | Product List | Glossary On
Versions: 1 2 3 4 5 6 7 8 9 10 11 12 13 14 15 16 17 18 19 20 21 22 23 24 25 26 27 28 29 30 31 32 33 34 35 36 37 38 39 40 41 42 43 44 45 46 47 48 49 50
000
ASUS45 KREV 181710
RWRNV
NEVADA REGIONAL WEATHER ROUNDUP
NATIONAL WEATHER SERVICE RENO NV
1000 AM PDT THU SEP 18 2014

NOTE: "FAIR" INDICATES FEW OR NO CLOUDS BELOW 12,000 FEET WITH NO
SIGNIFICANT WEATHER AND/OR OBSTRUCTIONS TO VISIBILITY.

NVZ001-003-004-181800-
WESTERN NEVADA

CITY           SKY/WX    TMP DP  RH WIND       PRES   REMARKS
RENO           MOSUNNY   73  42  32 E7        29.93S
MINDEN         FAIR      73  41  31 S21       29.95F
SLIDE MTN        N/A     45  37  76 SW15        N/A
FALLON         MOSUNNY   77  40  26 N9        29.89S
LOVELOCK       MOSUNNY   78  32  18 NE6       29.89S HAZE
HAWTHORNE      SUNNY     79  37  22 NW5       29.88F
$$

NVZ002-CAZ072-073-181800-
NORTHERN AND CENTRAL SIERRA

CITY           SKY/WX    TMP DP  RH WIND       PRES   REMARKS
S. LAKE TAHOE  MOSUNNY   65  40  39 S13G21    30.01F
TRUCKEE        PTSUNNY   61  45  55 S14G23    30.03
SQUAW VLY 8000 NOT AVBL
BLUE CANYON    CLOUDY    56  49  77 S8        30.04R HAZE
MAMMOTH LAKES  FAIR      68  34  28 S5        30.07R
BRIDGEPORT     FAIR      68  33  27 S15G23    30.03S
$$

NVZ030-031-036-181800-
NORTHERN NEVADA

CITY           SKY/WX    TMP DP  RH WIND       PRES   REMARKS
ELKO           MOSUNNY   80  48  32 SW5       29.92F
WINNEMUCCA     HAZE      71  39  31 W9        29.93R VSB 1
WENDOVER       SUNNY     81  48  32 SE6       29.90S
$$

NVZ035-037-181800-
CENTRAL NEVADA

CITY           SKY/WX    TMP DP  RH WIND       PRES   REMARKS
ELY            SUNNY     76  49  38 SE16G22   30.04F
EUREKA           N/A     78  50  37 S20       29.98F
$$

NVZ013-014-181800-
SOUTH CENTRAL NEVADA

CITY           SKY/WX    TMP DP  RH WIND       PRES   REMARKS
TONOPAH        SUNNY     78  46  32 S20       29.97S
$$

NVZ017-020-022-181800-
SOUTHERN NEVADA

CITY           SKY/WX    TMP DP  RH WIND       PRES   REMARKS
LAS VEGAS      MOSUNNY   90  54  29 S12       29.78S
N. LAS VEGAS   SUNNY     87  57  35 SE7       29.80F
NELLIS AFB     NOT AVBL
HENDERSON      SUNNY     90  50  25 S10       29.84F
MERCURY        SUNNY     88  37  16 S17G29    29.85S
$$


USA.gov is the U.S. government's official web portal to all federal, state and local government web resources and services.